This demonstration page uses our WeatherBlox Daily Observations layout. Learn more.

Hourly Observations for August 9, 2017

Temp ( °F °C ) Dew Point ( °F °C ) Humidity (%) Winds ( mph kmh ) Pressure ( in mb ) Visibility ( mi km ) Precip ( " mm )
12:15 am 00:15 Cloudy 68 19.8 62 16.4 81 81 SSW 5 7 30.06 1018 10 16.09344 0 0
12:35 am 00:35 Cloudy 67 19.7 62 16.5 82 82 SSW 5 7 30.06 1018 10 16.09344 0 0
12:55 am 00:55 Cloudy 68 19.8 62 16.6 82 82 S 6 9 30.03 1017 10 16.09344 0 0
1:15 am 01:15 Cloudy 68 19.8 61 16 79 79 S 7 11 30.03 1017 10 16.09344 0 0
1:35 am 01:35 Partly Cloudy 66 19 60 15.7 81 81 SSW 6 9 30.03 1017 10 16.09344 0 0
1:55 am 01:55 Mostly Cloudy 65 18.5 60 15.6 83 83 Calm 30.03 1017 10 16.09344 0 0
2:15 am 02:15 Cloudy 66 18.7 61 16 84 84 S 3 6 30.03 1017 10 16.09344 0 0
2:35 am 02:35 Partly Cloudy 65 18.3 61 15.9 86 86 SSW 6 9 30.03 1017 10 16.09344 0 0
2:55 am 02:55 Mostly Cloudy 66 19 60 15.8 82 82 SSW 8 13 30.03 1017 10 16.09344 0 0
3:15 am 03:15 Cloudy 67 19.7 60 15.5 77 77 SSW 7 11 30.03 1017 10 16.09344 0 0
3:35 am 03:35 Cloudy 67 19.5 60 15.3 77 77 SSW 7 11 30.03 1017 10 16.09344 0 0
3:55 am 03:55 Cloudy 67 19.4 59 14.8 75 75 S 6 9 30.03 1017 10 16.09344 0 0
4:15 am 04:15 Cloudy 67 19.2 58 14.7 75 75 SSW 8 13 30.03 1017 10 16.09344 0 0
4:35 am 04:35 Cloudy 66 19 59 14.8 77 77 S 7 11 30 1016 10 16.09344 0 0
4:55 am 04:55 Mostly Cloudy with Light Drizzle 65 18.3 59 15.2 82 82 S 8 13 30 1016 10 16.09344 0 0
5:15 am 05:15 Cloudy 65 18.5 59 15 80 80 S 10 17 30 1016 10 16.09344 0 0
5:35 am 05:35 Cloudy 65 18.3 59 15 81 81 S 9 15 30 1016 10 16.09344 0 0
5:55 am 05:55 Cloudy 65 18.2 59 15 82 82 SSE 8 13 30 1016 10 16.09344 0 0
6:15 am 06:15 Cloudy 64 18 59 15 83 83 SSE 7 11 30 1016 10 16.09344 0 0
6:35 am 06:35 Mostly Cloudy 65 18.1 59 15 82 82 S 8 13 30 1016 10 16.09344 0 0
6:55 am 06:55 Mostly Cloudy 65 18.3 59 15 81 81 S 12 19 30 1016 10 16.09344 0 0
7:15 am 07:15 Mostly Cloudy 65 18.1 59 15.1 83 83 S 9 15 30 1016 10 16.09344 0 0
7:35 am 07:35 Cloudy 65 18.5 59 15.1 81 81 S 10 17 30 1016 10 16.09344 0 0
7:55 am 07:55 Partly Cloudy 65 18.6 59 15.2 81 81 S 12 19 30 1016 10 16.09344 0 0
8:15 am 08:15 Sunny 66 18.9 60 15.5 81 81 S 13 20 30 1016 10 16.09344 0 0
8:35 am 08:35 Sunny 68 20 60 15.6 76 76 S 14 22 30 1016 10 16.09344 0 0
8:55 am 08:55 Sunny 69 20.4 60 15.8 75 75 S 9 15 30 1016 10 16.09344 0 0
9:15 am 09:15 Sunny 70 21.1 61 16 73 73 S 17 28 29.97 1015 10 16.09344 0 0
9:35 am 09:35 Sunny 71 21.7 61 16.1 71 71 S 17 28 29.97 1015 10 16.09344 0 0
9:55 am 09:55 Sunny 72 22.1 61 16.1 69 69 S 15 24 29.97 1015 10 16.09344 0 0
10:15 am 10:15 Partly Cloudy 73 22.8 61 16.3 67 67 S 14 22 29.97 1015 10 16.09344 0 0
10:35 am 10:35 Partly Cloudy 74 23.4 62 16.6 66 66 S 13 20 29.97 1015 10 16.09344 0 0
10:55 am 10:55 Mostly Cloudy 73 22.8 61 16.3 67 67 SSW 13 20 29.97 1015 10 16.09344 0 0
11:15 am 11:15 Mostly Cloudy 74 23.5 62 16.6 65 65 SSW 12 19 29.97 1015 10 16.09344 0 0
11:35 am 11:35 Mostly Cloudy 75 24 62 16.8 64 64 SSW 9 15 29.94 1014 10 16.09344 0 0
11:55 am 11:55 Mostly Cloudy 77 25 63 17.1 62 62 SSW 13 20 29.94 1014 10 16.09344 0 0
12:15 pm 12:15 Partly Cloudy 78 25.5 63 17.3 61 61 SSW 12 19 29.94 1014 10 16.09344 0 0
12:35 pm 12:35 Partly Cloudy 78 25.7 63 17.4 60 60 SW 9 15 29.94 1014 10 16.09344 0 0
12:55 pm 12:55 Partly Cloudy 78 25.8 63 17.3 59 59 S 7 11 29.91 1013 10 16.09344 0 0
1:15 pm 13:15 Mostly Cloudy 79 25.9 64 17.5 60 60 SW 8 13 29.94 1014 10 16.09344 0 0
1:35 pm 13:35 Mostly Cloudy 81 27 64 17.6 56 56 SSW 5 7 29.91 1013 10 16.09344 0 0
1:55 pm 13:55 Mostly Cloudy 81 27.2 64 17.6 56 56 S 6 9 29.91 1013 10 16.09344 0 0
2:15 pm 14:15 Mostly Cloudy 81 27.2 64 18 57 57 WSW 5 7 29.91 1013 10 16.09344 0 0
2:35 pm 14:35 Mostly Cloudy 82 27.9 64 17.7 54 54 Calm 29.88 1012 10 16.09344 0 0
2:55 pm 14:55 Mostly Cloudy 82 28 64 17.5 53 53 SSW 6 9 29.88 1012 10 16.09344 0 0
3:15 pm 15:15 Mostly Cloudy 83 28.5 64 17.6 52 52 S 5 7 29.88 1012 10 16.09344 0 0
3:35 pm 15:35 Partly Cloudy 81 27 63 17.3 55 55 Calm 29.91 1013 10 16.09344 0 0
3:55 pm 15:55 Sunny with Thunderstorms 80 26.7 64 17.5 57 57 Calm 29.91 1013 10 16.09344 0 0
4:15 pm 16:15 Partly Cloudy 78 25.8 66 18.8 65 65 SSW 5 7 29.91 1013 10 16.09344 0 0
4:35 pm 16:35 Mostly Cloudy 70 21.2 61 16.2 73 73 SW 13 20 29.94 1014 10 16.09344 0 0
4:55 pm 16:55 Mostly Cloudy 66 18.9 59 15.1 79 79 SW 14 22 29.97 1015 10 16.09344 0 0
5:15 pm 17:15 Partly Cloudy 71 21.8 59 15.2 66 66 S 5 7 29.94 1014 10 16.09344 0 0
5:35 pm 17:35 Sunny 73 23 60 15.5 63 63 S 5 7 29.94 1014 10 16.09344 0 0
5:55 pm 17:55 Sunny with Nearby Thunderstorms 73 22.7 61 15.9 66 66 Calm 29.94 1014 10 16.09344 0 0
6:15 pm 18:15 Sunny 74 23.1 59 14.8 60 60 Calm 29.94 1014 10 16.09344 0 0
6:35 pm 18:35 Sunny 76 24.6 59 15 55 55 ESE 12 19 29.91 1013 10 16.09344 0 0
6:55 pm 18:55 Partly Cloudy 73 23 62 16.9 69 69 ESE 10 17 29.94 1014 10 16.09344 0 0
7:15 pm 19:15 Sunny 73 23 61 15.9 64 64 SE 9 15 29.94 1014 10 16.09344 0 0
7:35 pm 19:35 Sunny 73 22.7 59 15.1 62 62 SE 8 13 29.94 1014 10 16.09344 0 0
7:55 pm 19:55 Sunny 73 22.7 60 15.4 64 64 SSE 8 13 29.94 1014 10 16.09344 0 0
8:15 pm 20:15 Sunny 71 21.8 60 15.3 67 67 S 6 9 29.94 1014 10 16.09344 0 0
8:35 pm 20:35 Sunny 69 20.5 60 15.3 72 72 S 5 7 29.97 1015 10 16.09344 0 0
8:55 pm 20:55 Clear 67 19.3 60 15.5 79 79 S 5 7 30 1016 10 16.09344 0 0
9:15 pm 21:15 Clear 67 19.3 60 15.5 79 79 Calm 30 1016 10 16.09344 0 0
9:35 pm 21:35 Clear 65 18.3 60 15.7 85 85 Calm 30 1016 10 16.09344 0 0
9:55 pm 21:55 Clear 64 17.5 60 15.7 89 89 Calm 30 1016 10 16.09344 0 0
10:15 pm 22:15 Clear 64 17.5 60 15.6 89 89 Calm 30.03 1017 10 16.09344 0 0
10:35 pm 22:35 Clear 63 17.1 60 15.6 91 91 Calm 30.06 1018 10 16.09344 0 0
10:55 pm 22:55 Clear 65 18.1 62 16.4 90 90 SSW 3 6 30.03 1017 10 16.09344 0 0
11:15 pm 23:15 Clear 64 17.7 61 16 90 90 SSW 5 7 30.03 1017 10 16.09344 0 0
11:35 pm 23:35 Clear 65 18.5 63 17 91 91 SSW 5 7 30.03 1017 10 16.09344 0 0
11:55 pm 23:55 Clear 65 18.3 62 16.7 90 90 Calm 30.03 1017 7 11.265408 0 0

Powered by AerisWeather